1511827201.04,3680,7.88,72884.0,-13.37,-44.67,-44.67,0,*5B
1511827202.25,3681,7.88,72884.3,-13.35,-44.07,-44.27,0,*5A
1511827203.51,3682,7.88,72884.8,-13.37,-44.13,-44.27,0,*5E
1511827204.75,3683,7.88,72886.0,-13.37,-44.53,-44.87,0,*51
1511827206.01,3684,7.88,72884.8,-13.41,-44.73,-44.79,0,*54
1511827207.27,3685,7.88,72884.5,-13.37,-44.07,-44.13,0,*5B
1511827208.51,3686,7.88,72888.0,-13.37,-44.27,-44.53,0,*5E
1511827209.77,3687,7.88,72886.3,-13.37,-44.53,-44.73,0,*5E
1511827211.02,3688,7.88,72886.8,-13.41,-44.33,-44.61,0,*55
1511827212.31,3689,7.88,72884.0,-13.41,-44.01,-44.13,0,*50
1511827213.55,3690,7.88,72890.3,-13.41,-43.95,-43.95,0,*5B
1511827214.79,3691,7.88,72884.8,-13.37,-43.95,-44.07,0,*57
1511827216.07,3692,7.88,72890.8,-13.41,-44.13,-44.13,0,*59
1511827217.35,3693,7.88,72888.3,-13.37,-43.81,-43.67,0,*51
1511827218.63,3694,7.88,72888.5,-13.37,-43.81,-43.81,0,*5E
1511827219.92,3695,7.88,72886.0,-13.37,-43.81,-43.67,0,*57
1511827221.21,3696,7.88,72888.8,-13.41,-43.67,-43.55,0,*5C
1511827222.45,3697,7.88,72888.5,-13.37,-43.41,-43.49,0,*55
1511827223.71,3698,7.88,72884.8,-13.37,-43.81,-43.61,0,*5C
1511827224.98,3699,7.88,72886.8,-13.37,-43.81,-43.81,0,*53
1511827226.25,3700,7.88,72890.3,-13.37,-43.61,-43.67,0,*54
1511827227.53,3701,7.88,72884.0,-13.37,-43.21,-43.09,0,*59
1511827228.77,3702,7.88,72890.5,-13.37,-43.41,-43.41,0,*50
1511827230.02,3703,7.88,72884.3,-13.37,-43.41,-43.41,0,*51
1511827231.25,3704,7.88,72886.5,-13.35,-43.21,-43.35,0,*51
1511827232.47,3705,7.88,72888.3,-13.35,-43.01,-43.15,0,*50
1511827233.7,3706,7.88,72884.3,-13.35,-43.15,-43.21,0,*51
1511827234.91,3707,7.88,72884.3,-13.35,-43.15,-43.15,0,*57
1511827236.15,3708,7.88,72886.0,-13.33,-43.01,-43.15,0,*5B
1511827237.39,3709,7.88,72886.3,-13.33,-43.15,-43.35,0,*5D
1511827238.65,3710,7.88,72882.3,-13.33,-43.21,-43.15,0,*50
1511827239.91,3711,7.88,72880.5,-13.33,-43.15,-43.21,0,*51
1511827241.15,3712,7.88,72886.8,-13.33,-43.15,-43.35,0,*57
1511827242.38,3713,7.88,72882.8,-13.29,-42.75,-42.89,0,*5C
1511827243.62,3714,7.88,72886.3,-13.29,-42.75,-42.75,0,*58
1511827244.86,3715,7.88,72886.0,-13.29,-42.89,-42.75,0,*5A
1511827246.13,3716,7.94,72888.3,-13.29,-43.29,-43.35,0,*57
1511827247.36,3717,7.94,72888.3,-13.25,-43.49,-43.49,0,*57
1511827248.6,3718,7.88,72882.5,-13.29,-43.35,-43.35,0,*54
1511827249.89,3719,7.88,72884.5,-13.29,-42.95,-43.09,0,*51
1511827251.16,3720,7.88,72886.3,-13.27,-43.09,-43.09,0,*51
1511827252.41,3721,7.88,72886.0,-13.27,-43.15,-42.95,0,*59
1511827253.67,3722,7.88,72886.0,-13.25,-43.09,-43.15,0,*5C
1511827254.91,3723,7.88,72886.0,-13.25,-43.49,-43.49,0,*50
1511827256.17,3724,7.88,72886.0,-13.25,-43.29,-43.35,0,*5A
1511827257.46,3725,7.88,72884.3,-13.25,-42.95,-43.29,0,*50
1511827258.7,3726,7.88,72886.8,-13.25,-43.35,-43.35,0,*55
1511827259.97,3727,7.88,72886.5,-13.25,-43.29,-43.35,0,*59
1511827261.23,3728,7.88,72884.8,-13.25,-43.09,-43.15,0,*56
1511827262.49,3729,7.88,72886.8,-13.25,-43.29,-43.15,0,*55
1511827263.75,3730,7.88,72884.3,-13.25,-43.09,-43.15,0,*5F
1511827265.0,3731,7.88,72882.3,-13.25,-42.75,-42.75,0,*53
1511827266.28,3732,7.88,72884.8,-13.25,-43.29,-43.29,0,*50
1511827267.54,3733,7.88,72882.8,-13.23,-43.09,-43.21,0,*5D
1511827268.8,3734,7.88,72882.5,-13.23,-43.21,-43.21,0,*50
1511827270.02,3735,7.88,72876.3,-13.23,-43.41,-43.41,0,*51
1511827271.27,3736,7.88,72882.5,-13.23,-43.21,-43.29,0,*5A
1511827272.53,3737,7.88,72882.8,-13.23,-43.29,-43.29,0,*53
1511827273.77,3738,7.88,72880.5,-13.21,-43.49,-43.49,0,*5E
1511827274.98,3739,7.88,72886.0,-13.23,-43.75,-43.87,0,*50
1511827276.24,3740,7.88,72880.8,-13.21,-43.67,-43.87,0,*5F
1511827277.5,3741,7.88,72886.8,-13.23,-43.67,-43.67,0,*52
1511827278.72,3742,7.88,72884.0,-13.23,-43.75,-43.95,0,*5F
1511827279.95,3743,7.88,72884.8,-13.21,-44.07,-44.27,0,*50
1511827281.23,3744,7.88,72886.3,-13.25,-44.13,-44.33,0,*53
1511827282.47,3745,7.88,72886.5,-13.21,-43.95,-44.07,0,*58
1511827283.75,3746,7.88,72882.5,-13.25,-44.13,-44.33,0,*51
1511827285.01,3747,7.88,72882.8,-13.25,-43.95,-44.01,0,*58
1511827286.25,3748,7.88,72884.5,-13.25,-43.95,-43.95,0,*5D
1511827287.46,3749,7.88,72884.3,-13.23,-43.61,-43.61,0,*5A
1511827288.68,3750,7.88,72882.8,-13.23,-43.75,-43.95,0,*5C
1511827289.94,3751,7.88,72884.5,-13.27,-44.01,-44.13,0,*54
1511827291.18,3752,7.88,72882.5,-13.27,-43.95,-44.13,0,*5D
1511827292.42,3753,7.88,72884.3,-13.25,-43.95,-43.95,0,*57
1511827293.7,3754,7.88,72886.0,-13.25,-44.13,-44.33,0,*52
1511827294.93,3755,7.88,72882.0,-13.27,-44.13,-44.53,0,*57
1511827296.18,3756,7.88,72886.3,-13.27,-44.21,-44.41,0,*56
1511827297.42,3757,7.88,72882.8,-13.27,-43.95,-44.21,0,*59
1511827298.65,3758,7.88,72884.8,-13.27,-44.13,-44.53,0,*5A
1511827299.92,3759,7.88,72886.0,-13.27,-44.01,-44.21,0,*5D
1511827301.18,3760,7.88,72884.0,-13.29,-43.95,-44.01,0,*51
1511827302.46,3761,7.94,72886.8,-13.29,-43.55,-43.55,0,*5A
1511827303.72,3762,7.88,72880.3,-13.33,-43.87,-44.01,0,*5B
1511827304.99,3763,7.88,72884.0,-13.27,-43.81,-43.67,0,*5E
1511827306.27,3764,7.88,72880.0,-13.29,-43.81,-43.67,0,*57
1511827307.56,3765,7.88,72882.5,-13.29,-43.55,-43.67,0,*5F
1511827308.85,3766,7.88,72884.0,-13.29,-43.67,-43.55,0,*5C
1511827310.14,3767,7.88,72884.5,-13.29,-43.55,-43.55,0,*5C
1511827311.4,3768,7.88,72882.0,-13.29,-43.75,-43.67,0,*50
1511827312.64,3769,7.88,72882.8,-13.29,-43.35,-43.49,0,*59
1511827313.93,3770,7.88,72884.5,-13.29,-43.67,-43.55,0,*5B
1511827315.19,3771,7.88,72884.0,-13.27,-43.67,-43.67,0,*55
1511827316.43,3772,7.88,72886.5,-13.27,-43.81,-43.95,0,*53
1511827317.67,3773,7.88,72884.8,-13.25,-43.75,-43.75,0,*55
1511827318.96,3774,7.88,72884.5,-13.25,-43.67,-43.67,0,*52
1511827320.18,3775,7.88,72884.5,-13.27,-43.75,-43.95,0,*5F
1511827321.4,3776,7.88,72882.3,-13.27,-43.75,-43.95,0,*5C
1511827322.66,3777,7.88,72886.3,-13.27,-43.81,-44.01,0,*5C
1511827323.91,3778,7.88,72886.3,-13.27,-43.81,-43.95,0,*59
1511827325.19,3779,7.88,72886.0,-13.29,-44.01,-44.01,0,*53
1511827326.43,3780,7.88,72884.8,-13.27,-43.95,-44.13,0,*52
1511827327.64,3781,7.88,72884.0,-13.27,-43.95,-43.95,0,*5A
1511827328.91,3782,7.88,72886.3,-13.27,-44.01,-44.01,0,*59
1511827330.15,3783,7.88,72884.0,-13.27,-43.95,-44.13,0,*51
1511827331.39,3784,7.88,72882.8,-13.33,-44.27,-44.61,0,*58
1511827332.65,3785,7.88,72884.8,-13.29,-44.21,-44.53,0,*55
1511827333.93,3786,7.88,72882.3,-13.29,-44.13,-44.33,0,*51
1511827335.18,3787,7.88,72884.3,-13.29,-44.33,-44.53,0,*54
1511827336.45,3788,7.88,72886.0,-13.33,-44.21,-44.27,0,*50
1511827337.71,3789,7.88,72888.5,-13.29,-43.95,-44.01,0,*56
1511827338.99,3790,7.88,72888.5,-13.33,-44.01,-44.01,0,*5F
1511827340.23,3791,7.88,72886.5,-13.29,-43.35,-43.41,0,*56
1511827341.47,3792,7.88,72884.8,-13.33,-43.15,-43.35,0,*5F
1511827342.75,3793,7.88,72882.8,-13.29,-43.29,-43.29,0,*57
1511827344.01,3794,7.88,72888.8,-13.33,-43.21,-43.01,0,*59
1511827345.25,3795,7.88,72886.8,-13.33,-43.15,-43.35,0,*58
1511827346.55,3796,7.88,72882.8,-13.29,-42.95,-42.95,0,*52
1511827347.79,3797,7.88,72884.3,-13.27,-42.75,-42.95,0,*53
1511827349.03,3798,7.88,72884.5,-13.27,-43.15,-43.29,0,*5D
1511827350.27,3799,7.88,72884.5,-13.27,-43.35,-43.29,0,*5E
1511827351.53,3800,7.88,72884.5,-13.27,-43.55,-43.55,0,*5C
1511827352.8,3801,7.88,72886.8,-13.27,-43.55,-43.55,0,*5D
1511827354.02,3802,7.88,72888.0,-13.27,-43.49,-43.35,0,*55
1511827355.29,3803,7.88,72888.5,-13.27,-43.29,-43.29,0,*5F
1511827356.52,3804,7.88,72886.0,-13.25,-43.49,-43.49,0,*5A
1511827357.81,3805,7.88,72890.3,-13.25,-43.67,-43.55,0,*5A
1511827359.05,3806,7.88,72884.5,-13.25,-43.15,-43.15,0,*58
1511827360.34,3807,7.88,72890.8,-13.25,-42.95,-42.95,0,*59
1511827361.56,3808,7.88,72884.5,-13.27,-42.89,-42.75,0,*57
1511827362.82,3809,7.88,72888.5,-13.25,-42.69,-42.51,0,*5C
1511827364.09,3810,7.88,72884.5,-13.25,-42.89,-42.95,0,*52
1511827365.38,3811,7.88,72886.5,-13.25,-42.95,-42.95,0,*5E
1511827366.68,3812,7.88,72886.0,-13.25,-42.95,-42.95,0,*5D
1511827367.89,3813,7.88,72884.5,-13.23,-42.51,-42.51,0,*5A
1511827369.13,3814,7.88,72884.5,-13.21,-42.63,-42.89,0,*5B
1511827370.39,3815,7.88,72884.3,-13.21,-43.01,-43.09,0,*56
1511827371.63,3816,7.88,72882.3,-13.21,-43.01,-43.01,0,*5D
1511827372.92,3817,7.88,72884.3,-13.21,-43.09,-43.09,0,*5C
1511827374.19,3818,7.88,72880.5,-13.21,-43.01,-43.09,0,*5B
1511827375.43,3819,7.88,72882.5,-13.19,-42.95,-43.01,0,*55
1511827376.64,3820,7.88,72882.8,-13.19,-43.35,-43.15,0,*51
1511827377.86,3821,7.88,72882.3,-13.19,-43.35,-43.15,0,*50
1511827379.09,3822,7.88,72886.5,-13.19,-43.41,-43.21,0,*57
1511827380.36,3823,7.88,72884.8,-13.15,-42.95,-43.09,0,*58
1511827381.57,3824,7.88,72884.5,-13.19,-43.15,-43.15,0,*57
1511827382.78,3825,7.88,72886.8,-13.15,-43.15,-43.15,0,*5A
1511827384.05,3826,7.88,72882.0,-13.19,-43.55,-43.55,0,*55
1511827385.31,3827,7.88,72884.5,-13.19,-43.55,-43.55,0,*54
1511827386.52,3828,7.88,72886.3,-13.15,-43.49,-43.49,0,*57
1511827387.77,3829,7.88,72886.8,-13.19,-43.55,-43.41,0,*5F
1511827388.98,3830,7.88,72884.8,-13.19,-43.41,-43.35,0,*51
1511827390.22,3831,7.88,72884.5,-13.15,-43.35,-43.29,0,*52
1511827391.46,3832,7.88,72882.8,-13.19,-43.55,-43.35,0,*56
1511827392.69,3833,7.88,72890.5,-13.19,-43.35,-43.21,0,*54
1511827393.9,3834,7.88,72882.0,-13.15,-43.49,-43.49,0,*5A
1511827395.13,3835,7.88,72886.8,-13.19,-43.61,-43.41,0,*55
1511827396.38,3836,7.88,72886.5,-13.19,-43.67,-43.81,0,*5C
1511827397.64,3837,7.88,72886.5,-13.19,-43.67,-43.81,0,*5D
1511827398.84,3838,7.88,72884.8,-13.19,-43.87,-44.07,0,*55
1511827400.06,3839,7.88,72882.8,-13.19,-44.27,-44.41,0,*5B
1511827401.27,3840,7.88,72884.3,-13.19,-44.07,-44.27,0,*57
1511827402.52,3841,7.88,72884.0,-13.19,-44.27,-44.21,0,*52
1511827403.77,3842,7.88,72884.5,-13.21,-44.27,-44.47,0,*5A
1511827405.05,3843,7.88,72882.3,-13.21,-44.33,-44.47,0,*5E
1511827406.3,3844,7.88,72886.3,-13.23,-44.47,-44.67,0,*5A
1511827407.56,3845,7.88,72884.0,-13.23,-44.47,-44.67,0,*5B
1511827408.82,3846,7.88,72884.0,-13.23,-44.67,-44.73,0,*5F
1511827410.04,3847,7.88,72880.0,-13.21,-43.87,-43.87,0,*59
1511827411.3,3848,7.88,72884.0,-13.23,-44.33,-44.47,0,*57
1511827412.55,3849,7.88,72884.5,-13.23,-44.33,-44.47,0,*56
1511827413.82,3850,7.88,72886.5,-13.27,-44.73,-44.73,0,*59
1511827415.05,3851,7.88,72884.3,-13.25,-44.61,-44.61,0,*5A
1511827416.29,3852,7.88,72886.0,-13.27,-44.53,-44.73,0,*59
1511827417.55,3853,7.88,72886.8,-13.27,-44.13,-44.13,0,*5A
1511827418.79,3854,7.88,72886.8,-13.27,-43.95,-44.01,0,*57
1511827420.03,3855,7.88,72886.3,-13.27,-44.01,-43.75,0,*58
1511827421.28,3856,7.88,72886.8,-13.27,-44.01,-43.95,0,*55
1511827422.54,3857,7.88,72888.0,-13.27,-44.01,-44.01,0,*5E
1511827423.76,3858,7.88,72888.3,-13.27,-43.95,-43.75,0,*5F
1511827425.02,3859,7.88,72888.3,-13.27,-43.67,-43.67,0,*50
1511827426.29,3860,7.88,72888.0,-13.27,-43.55,-43.67,0,*5B
1511827427.53,3861,7.88,72886.0,-13.27,-43.81,-43.75,0,*50
1511827428.81,3862,7.88,72886.0,-13.29,-43.81,-44.01,0,*59
1511827430.06,3863,7.88,72890.8,-13.27,-43.75,-43.55,0,*5B
1511827431.3,3864,7.88,72888.0,-13.27,-43.75,-43.55,0,*5C
1511827432.57,3865,7.88,72886.0,-13.27,-43.67,-43.67,0,*5F
1511827433.84,3866,7.88,72888.5,-13.27,-43.55,-43.55,0,*5C
1511827435.08,3867,7.88,72888.0,-13.27,-43.81,-43.75,0,*56
1511827436.32,3868,7.88,72888.8,-13.27,-43.81,-43.95,0,*57
1511827437.56,3869,7.88,72890.0,-13.29,-43.75,-43.95,0,*53
1511827438.8,3870,7.88,72890.3,-13.27,-43.81,-43.75,0,*50
1511827440.08,3871,7.88,72888.0,-13.25,-43.55,-43.55,0,*58
1511827441.35,3872,7.88,72890.5,-13.27,-43.67,-43.67,0,*59
1511827442.64,3873,7.88,72888.3,-13.29,-43.67,-43.55,0,*57
1511827443.86,3874,7.88,72890.5,-13.27,-43.75,-43.75,0,*5F
1511827445.08,3875,7.88,72886.8,-13.27,-43.75,-43.75,0,*5E
1511827446.37,3876,7.88,72888.8,-13.25,-43.67,-43.67,0,*5F
1511827447.63,3877,7.88,72890.5,-13.27,-43.55,-43.55,0,*5C
1511827448.9,3878,7.88,72888.3,-13.27,-43.09,-43.09,0,*53
1511827450.14,3879,7.88,72888.5,-13.25,-43.49,-43.49,0,*50
1511827451.38,3880,7.88,72890.0,-13.27,-43.35,-43.55,0,*52
1511827452.65,3881,7.88,72884.5,-13.25,-42.89,-43.09,0,*5E
1511827453.92,3882,7.88,72886.3,-13.27,-42.95,-42.95,0,*56
1511827455.16,3883,7.88,72888.5,-13.27,-43.09,-43.15,0,*5A
1511827456.4,3884,7.88,72888.3,-13.25,-43.49,-43.49,0,*52
1511827457.69,3885,7.88,72888.3,-13.25,-43.55,-43.55,0,*53
1511827458.91,3886,7.88,72884.8,-13.27,-43.75,-43.75,0,*52
1511827460.15,3887,7.88,72884.5,-13.27,-43.55,-43.49,0,*5E
1511827461.41,3888,7.88,72880.8,-13.25,-43.09,-43.15,0,*53
1511827462.71,3889,7.88,72884.0,-13.25,-42.95,-42.95,0,*5F
1511827464.01,3890,7.88,72886.5,-13.25,-42.95,-42.95,0,*57
1511827465.3,3891,7.88,72882.5,-13.25,-43.09,-42.95,0,*52
1511827466.53,3892,7.88,72882.5,-13.25,-42.89,-42.89,0,*55
1511827467.76,3893,7.88,72882.3,-13.23,-42.51,-42.45,0,*57
1511827469.05,3894,7.88,72884.8,-13.21,-43.21,-43.09,0,*5D
1511827470.29,3895,7.88,72880.0,-13.21,-43.01,-43.01,0,*56
1511827471.57,3896,7.88,72882.3,-13.21,-42.69,-42.69,0,*55
1511827472.83,3897,7.88,72880.8,-13.21,-42.83,-43.01,0,*5F
1511827474.07,3898,7.88,72878.8,-13.15,-42.89,-42.95,0,*51
1511827475.34,3899,7.88,72878.8,-13.19,-42.95,-42.83,0,*56
1511827476.59,3900,7.88,72882.5,-13.15,-42.69,-42.57,0,*51
1511827477.81,3901,7.88,72886.0,-13.15,-42.75,-42.75,0,*5D
1511827479.05,3902,7.88,72886.8,-13.15,-42.95,-42.89,0,*53
1511827480.32,3903,7.88,72880.8,-13.15,-43.29,-43.09,0,*5D
1511827481.56,3904,7.88,72880.3,-13.19,-43.61,-43.55,0,*53
1511827482.83,3905,7.88,72884.0,-13.19,-43.55,-43.55,0,*55
1511827484.04,3906,7.88,72882.8,-13.15,-43.61,-43.75,0,*5F
1511827485.28,3907,7.88,72884.0,-13.19,-43.67,-43.61,0,*51
1511827486.54,3908,7.88,72882.0,-13.19,-43.67,-43.81,0,*50
1511827487.75,3909,7.88,72882.3,-13.15,-43.49,-43.35,0,*5E
1511827488.97,3910,7.88,72880.3,-13.19,-43.61,-43.61,0,*51
1511827490.19,3911,7.88,72878.8,-13.15,-43.61,-43.75,0,*59
1511827491.42,3912,7.88,72878.5,-13.19,-43.81,-43.87,0,*55
1511827492.65,3913,7.88,72880.8,-13.19,-43.81,-43.87,0,*54
1511827493.89,3914,7.88,72878.0,-13.19,-43.61,-43.81,0,*5B
1511827495.12,3915,7.88,72880.5,-13.19,-43.67,-43.87,0,*5A
1511827496.35,3916,7.88,72878.3,-13.19,-43.67,-43.87,0,*59
1511827497.58,3917,7.88,72876.0,-13.19,-43.87,-44.01,0,*5F
1511827498.82,3918,7.88,72876.3,-13.19,-43.87,-44.21,0,*52
1511827500.05,3919,7.88,72874.5,-13.15,-43.75,-43.81,0,*5F
1511827501.29,3920,7.88,72874.5,-13.19,-43.67,-43.61,0,*54
1511827502.53,3921,7.88,72874.8,-13.21,-43.61,-43.61,0,*58
1511827503.77,3922,7.88,72878.5,-13.21,-43.75,-43.95,0,*55
1511827505.01,3923,7.88,72876.3,-13.19,-43.61,-43.81,0,*5F
1511827506.23,3924,7.88,72876.3,-13.19,-43.61,-43.61,0,*56
1511827507.49,3925,7.88,72878.0,-13.19,-43.55,-43.55,0,*57
1511827508.72,3926,7.88,72878.0,-13.19,-43.87,-44.01,0,*5D
1511827509.96,3927,7.88,72880.3,-13.19,-43.67,-43.61,0,*53
1511827511.22,3928,7.88,72882.3,-13.19,-43.21,-43.21,0,*5A
1511827512.46,3929,7.88,72880.0,-13.21,-43.61,-43.49,0,*5A
1511827513.71,3930,7.88,72878.8,-13.19,-43.21,-43.21,0,*53
1511827514.97,3931,7.88,72878.3,-13.19,-43.21,-43.21,0,*52
1511827516.2,3932,7.88,72874.0,-13.19,-43.35,-43.21,0,*54
1511827517.44,3933,7.88,72876.8,-13.19,-43.55,-43.35,0,*56
1511827518.7,3934,7.88,72874.8,-13.19,-43.67,-43.81,0,*5F
1511827519.92,3935,7.88,72874.0,-13.19,-43.61,-43.61,0,*56
1511827521.14,3936,7.88,72874.3,-13.19,-43.41,-43.41,0,*55
1511827522.37,3937,7.88,72878.0,-13.15,-43.55,-43.61,0,*5F
1511827523.59,3938,7.88,72876.5,-13.19,-43.49,-43.49,0,*5B
1511827524.83,3939,7.88,72880.3,-13.19,-43.55,-43.61,0,*5D
1511827526.06,3940,7.88,72876.8,-13.19,-43.87,-44.01,0,*5D
1511827527.29,3941,7.88,72882.8,-13.19,-43.87,-44.01,0,*5C
1511827528.52,3942,7.88,72876.5,-13.21,-44.07,-44.27,0,*5F
1511827529.73,3943,7.88,72876.3,-13.19,-44.07,-44.07,0,*57
1511827530.97,3944,7.88,72880.5,-13.19,-44.07,-44.21,0,*54
1511827532.19,3945,7.88,72878.3,-13.19,-44.27,-44.41,0,*51
1511827533.46,3946,7.88,72880.0,-13.21,-44.33,-44.47,0,*5A
1511827534.72,3947,7.88,72880.3,-13.21,-44.27,-44.47,0,*5E
1511827535.95,3948,7.88,72880.0,-13.21,-43.95,-44.27,0,*59
1511827537.21,3949,7.88,72882.3,-13.21,-43.95,-44.13,0,*5F
1511827538.42,3950,7.88,72882.0,-13.23,-44.07,-44.27,0,*5E
1511827539.66,3951,7.88,72880.8,-13.21,-43.87,-43.95,0,*5C
1511827540.89,3952,7.88,72882.5,-13.21,-43.95,-44.07,0,*50
1511827542.13,3953,7.88,72880.5,-13.23,-44.07,-44.33,0,*58
1511827543.36,3954,7.88,72882.8,-13.23,-44.07,-44.33,0,*5F
1511827544.59,3955,7.88,72880.8,-13.21,-44.07,-44.27,0,*59
1511827545.83,3956,7.88,72880.8,-13.21,-44.27,-44.27,0,*58
1511827547.09,3957,7.88,72882.3,-13.23,-44.13,-44.33,0,*59
1511827548.32,3958,7.88,72880.3,-13.25,-44.41,-44.53,0,*51
1511827549.6,3959,7.88,72884.3,-13.25,-44.13,-44.33,0,*51
1511827550.89,3960,7.88,72884.5,-13.25,-44.21,-44.33,0,*5A
1511827552.18,3961,7.88,72882.5,-13.25,-44.01,-44.21,0,*5A
1511827553.44,3962,7.88,72886.0,-13.25,-43.95,-44.21,0,*53
1511827554.7,3963,7.88,72884.5,-13.25,-43.81,-43.75,0,*51
1511827555.99,3964,7.88,72886.3,-13.25,-44.01,-44.21,0,*5F
1511827557.27,3965,7.88,72888.0,-13.25,-44.01,-44.33,0,*5D
1511827558.53,3966,7.88,72884.5,-13.25,-44.13,-44.41,0,*58
1511827559.76,3967,7.88,72886.3,-13.25,-44.41,-44.61,0,*5C
1511827561.02,3968,7.88,72888.3,-13.25,-44.21,-44.53,0,*54
1511827562.26,3969,7.88,72886.3,-13.27,-44.53,-44.73,0,*50
1511827563.53,3970,7.88,72888.8,-13.27,-44.21,-44.21,0,*5A
1511827564.8,3971,7.88,72886.8,-13.27,-44.01,-44.21,0,*59
1511827566.04,3972,7.88,72888.0,-13.27,-43.95,-44.01,0,*52
1511827567.31,3973,7.88,72886.3,-13.27,-44.01,-44.21,0,*5B
1511827568.57,3974,7.88,72888.8,-13.27,-44.01,-44.13,0,*5D
1511827569.81,3975,7.88,72888.8,-13.27,-43.81,-43.95,0,*5A
1511827571.08,3976,7.88,72888.0,-13.27,-43.67,-43.67,0,*5C
1511827572.35,3977,7.88,72888.8,-13.27,-43.67,-43.67,0,*5D
1511827573.62,3978,7.88,72890.3,-13.27,-43.55,-43.67,0,*53
1511827574.84,3979,7.88,72892.0,-13.27,-43.35,-43.35,0,*53
1511827576.1,3980,7.88,72886.8,-13.27,-43.55,-43.55,0,*55
1511827577.34,3981,7.88,72888.3,-13.27,-43.81,-43.75,0,*5F
1511827578.59,3982,7.88,72890.5,-13.27,-43.75,-43.67,0,*54
1511827579.86,3983,7.88,72886.3,-13.27,-43.67,-43.67,0,*56
1511827581.09,3984,7.88,72886.0,-13.25,-43.15,-43.35,0,*51
1511827582.34,3985,7.88,72884.5,-13.23,-43.01,-43.09,0,*5C
1511827583.58,3986,7.88,72884.3,-13.25,-43.49,-43.35,0,*5A
1511827584.87,3987,7.88,72886.0,-13.25,-43.67,-43.55,0,*51
1511827586.11,3988,7.88,72886.3,-13.25,-43.49,-43.49,0,*5F
1511827587.4,3989,7.88,72880.3,-13.25,-43.67,-43.55,0,*5F
1511827588.68,3990,7.88,72876.8,-13.25,-43.55,-43.55,0,*56
1511827589.94,3991,7.88,72876.5,-13.25,-43.95,-44.01,0,*5D
1511827591.23,3992,7.88,72880.3,-13.21,-43.67,-43.67,0,*50
1511827592.45,3993,7.88,72882.8,-13.23,-43.61,-43.61,0,*53
1511827593.66,3994,7.88,72884.3,-13.23,-43.49,-43.49,0,*54
1511827594.9,3995,7.88,72886.5,-13.23,-43.29,-43.41,0,*5B
1511827596.12,3996,7.88,72882.3,-13.23,-43.49,-43.61,0,*5C
1511827597.37,3997,7.88,72882.5,-13.23,-43.21,-43.21,0,*57
1511827598.63,3998,7.88,72884.8,-13.23,-43.29,-43.21,0,*50
1511827599.9,3999,7.88,72884.0,-13.23,-43.29,-43.29,0,*59
1511827601.14,4000,7.88,72884.8,-13.21,-43.49,-43.41,0,*5D
1511827602.42,4001,7.88,72888.5,-13.21,-43.09,-43.09,0,*54
1511827603.69,4002,7.88,72888.5,-13.21,-42.69,-42.63,0,*5D
1511827604.97,4003,7.88,72882.8,-13.21,-43.21,-43.21,0,*56
1511827606.21,4004,7.88,72886.0,-13.21,-43.01,-42.89,0,*50
1511827607.45,4005,7.88,72886.3,-13.19,-42.83,-42.75,0,*52
1511827608.69,4006,7.88,72886.3,-13.15,-42.69,-42.75,0,*59
1511827609.91,4007,7.88,72884.3,-13.19,-42.75,-42.75,0,*59
1511827611.16,4008,7.88,72886.8,-13.15,-42.57,-42.69,0,*57
1511827612.4,4009,7.88,72884.0,-13.15,-42.69,-42.89,0,*55
1511827613.61,4010,7.88,72884.8,-13.15,-43.15,-43.15,0,*53
1511827614.85,4011,7.88,72880.8,-13.15,-42.95,-42.89,0,*5F
1511827616.09,4012,7.88,72882.8,-13.15,-42.57,-42.75,0,*51
1511827617.35,4013,7.88,72882.0,-13.15,-42.69,-42.69,0,*50
1511827618.61,4014,7.88,72882.3,-13.13,-42.57,-42.75,0,*51
1511827619.85,4015,7.88,72882.8,-13.13,-42.51,-42.37,0,*50
1511827621.13,4016,7.88,72880.5,-13.13,-42.57,-42.57,0,*53
1511827622.39,4017,7.88,72882.5,-13.13,-42.89,-43.09,0,*5B
1511827623.66,4018,7.88,72882.3,-13.11,-43.09,-43.21,0,*55
1511827624.87,4019,7.88,72880.5,-13.11,-42.89,-43.01,0,*5F
1511827626.13,4020,7.88,72884.0,-13.11,-43.21,-43.21,0,*54
1511827627.35,4021,7.88,72880.3,-13.11,-43.49,-43.41,0,*5D
1511827628.61,4022,7.88,72878.5,-13.11,-43.29,-43.29,0,*56
1511827629.87,4023,7.88,72878.8,-13.11,-43.21,-43.21,0,*57
1511827631.14,4024,7.88,72882.5,-13.11,-43.29,-43.21,0,*58
1511827632.38,4025,7.88,72876.5,-13.11,-43.41,-43.29,0,*5F
1511827633.62,4026,7.88,72878.0,-13.11,-43.21,-43.41,0,*54
1511827634.89,4027,7.88,72878.0,-13.11,-43.67,-43.67,0,*53
1511827636.1,4028,7.88,72882.5,-13.11,-43.95,-44.07,0,*50
1511827637.31,4029,7.88,72878.0,-13.11,-44.07,-44.27,0,*5F
1511827638.53,4030,7.88,72882.5,-13.11,-43.95,-44.27,0,*5B
1511827639.77,4031,7.88,72880.5,-13.11,-44.07,-44.13,0,*51
1511827641.05,4032,7.88,72880.0,-13.13,-44.01,-44.13,0,*56
1511827642.31,4033,7.88,72880.0,-13.13,-43.61,-43.81,0,*5A
1511827643.53,4034,7.88,72880.0,-13.15,-43.95,-43.95,0,*55
1511827644.81,4035,7.88,72882.8,-13.13,-44.01,-44.13,0,*51
1511827646.08,4036,7.88,72878.0,-13.13,-43.95,-44.13,0,*58
1511827647.31,4037,7.88,72882.5,-13.15,-43.75,-43.81,0,*5D
1511827648.55,4038,7.88,72884.3,-13.13,-43.75,-43.95,0,*51
1511827649.77,4039,7.88,72882.5,-13.15,-43.75,-43.95,0,*56
1511827651.06,4040,7.88,72880.3,-13.13,-43.55,-43.55,0,*50
1511827652.3,4041,7.88,72880.8,-13.15,-43.61,-43.55,0,*50
1511827653.59,4042,7.88,72888.8,-13.13,-43.55,-43.55,0,*52
1511827654.81,4043,7.88,72884.8,-13.15,-43.61,-43.49,0,*5F
1511827656.05,4044,7.88,72886.5,-13.15,-43.55,-43.49,0,*5F
1511827657.26,4045,7.88,72886.3,-13.15,-43.75,-43.75,0,*53
1511827658.52,4046,7.88,72884.3,-13.15,-43.81,-44.13,0,*5C
1511827659.78,4047,7.88,72886.0,-13.15,-44.21,-44.33,0,*52
1511827661.02,4048,7.88,72884.0,-13.15,-43.95,-44.01,0,*54
1511827662.28,4049,7.88,72886.8,-13.15,-43.55,-43.55,0,*5F
1511827663.52,4050,7.88,72886.0,-13.19,-43.67,-43.61,0,*5D
1511827664.77,4051,7.88,72886.3,-13.15,-43.61,-43.55,0,*51
1511827665.98,4052,7.88,72884.0,-13.15,-43.61,-43.75,0,*50
1511827667.22,4053,7.88,72884.8,-13.15,-43.81,-43.95,0,*51
1511827668.46,4054,7.88,72884.3,-13.15,-43.81,-43.95,0,*56
1511827669.71,4055,7.88,72884.8,-13.19,-43.81,-44.01,0,*51
1511827670.95,4056,7.88,72888.8,-13.15,-43.95,-44.13,0,*58
1511827672.21,4057,7.88,72890.8,-13.15,-43.81,-44.01,0,*5F
1511827673.47,4058,7.88,72888.5,-13.19,-44.01,-44.01,0,*53
1511827674.73,4059,7.88,72890.0,-13.19,-43.81,-44.01,0,*5D
1511827675.96,4060,7.88,72888.3,-13.15,-43.75,-43.81,0,*5F
1511827677.2,4061,7.88,72884.5,-13.15,-43.61,-43.55,0,*52
1511827678.42,4062,7.88,72884.8,-13.19,-43.35,-43.35,0,*5A
1511827679.65,4063,7.88,72890.8,-13.15,-43.35,-43.29,0,*5A
1511827680.86,4064,7.88,72890.8,-13.15,-43.15,-43.15,0,*50
1511827682.12,4065,7.88,72884.8,-13.15,-43.29,-43.29,0,*51
1511827683.34,4066,7.88,72884.3,-13.15,-43.61,-43.75,0,*57
1511827684.55,4067,7.88,72888.0,-13.15,-43.35,-43.35,0,*53
1511827685.82,4068,7.88,72886.8,-13.15,-42.95,-43.09,0,*58
1511827687.08,4069,7.88,72886.0,-13.15,-43.55,-43.55,0,*5D
1511827688.32,4070,7.88,72890.0,-13.15,-43.49,-43.55,0,*58
1511827689.56,4071,7.88,72886.0,-13.15,-43.55,-43.49,0,*59
1511827690.78,4072,7.88,72884.0,-13.15,-43.49,-43.49,0,*57
1511827692.01,4073,7.88,72890.5,-13.15,-43.49,-43.29,0,*50
1511827693.26,4074,7.88,72886.3,-13.13,-43.61,-43.75,0,*52
1511827694.49,4075,7.88,72884.3,-13.15,-43.61,-43.81,0,*5E
1511827695.73,4076,7.88,72886.5,-13.15,-43.55,-43.49,0,*5E
1511827696.94,4077,7.88,72886.5,-13.15,-43.15,-43.15,0,*52
1511827698.18,4078,7.88,72884.5,-13.15,-43.29,-43.49,0,*5B
1511827699.39,4079,7.88,72882.5,-13.15,-43.49,-43.49,0,*5C
1511827700.61,4080,7.88,72886.5,-13.15,-43.49,-43.49,0,*5A
1511827701.85,4081,7.88,72880.5,-13.13,-43.61,-43.75,0,*58
1511827703.06,4082,7.88,72884.8,-13.15,-43.49,-43.49,0,*58
1511827704.3,4083,7.88,72886.8,-13.13,-43.49,-43.49,0,*5F
1511827705.54,4084,7.88,72884.0,-13.15,-43.35,-43.29,0,*53
1511827706.78,4085,7.88,72886.3,-13.15,-43.09,-43.15,0,*52
1511827708.01,4086,7.88,72884.8,-13.15,-43.29,-43.15,0,*53